Flag for Morocco Weather past 2 weeks in Casablanca, Morocco

Now
57 °F

Passing clouds.


Feels Like: 56 °F
Forecast: N/A
Wind: 6 mph from Southwest

Location: Casablanca Airport

Current Time: Mar 5, 2015 at 11:12:18 PM

Latest Report: Mar 5, 2015 at 10:00 PM


Visibility: 3 mi

Pressure: 30.09 "Hg

Humidity: 94%

Dew point: 55 °F

Location of CasablancaLocation

Historic Weather in Casablanca — Graph

°F

Casablanca temperature yesterday

Maximum temperature yesterday: 63 °F (at 12:00 PM)
Minimum temperature yesterday: 57 °F (at 12:00 AM)
Average temperature yesterday: 59 °F

Past Weeks' High & Low Weather Summary

 TemperatureHumidityPressure
High66 °F (Mar 1, 2:00 PM)100% (Feb 21, 8:00 PM)30.48 "Hg (Feb 21, 8:00 PM)
Low46 °F (Feb 23, 1:00 PM)52% (Feb 19, 7:00 PM)29.95 "Hg (Feb 21, 4:00 PM)
Average58 °F81%30.24 "Hg
* Reported Feb 18 10:00 PM — Mar 5 10:00 PM, Casablanca, Weather by CustomWeather, © 2015

Note: Actual official high and low records may vary slightly from our data, if they occured in-between our weather recording intervals... More about our weather records

Advertising

Casablanca weather history for previous 24 hours

 ConditionsComfort  
Time TempWeatherWind HumidityBarometerVisibility
10:00 PM
Thu, Mar 5
57 °FPassing clouds.6 mph94%30.09 "Hg3 mi
9:00 PM55 °FPassing clouds.No wind100%30.09 "Hg3 mi
8:00 PM57 °FPassing clouds.3 mph94%30.09 "Hg3 mi
7:00 PM57 °FPassing clouds.3 mph94%30.09 "Hg3 mi
6:00 PM61 °FPassing clouds.9 mph83%30.09 "Hg4 mi
5:00 PM61 °FClear.8 mph88%30.07 "Hg4 mi
4:00 PM59 °FOvercast.12 mph94%30.09 "Hg3 mi
3:00 PM59 °FOvercast.12 mph94%30.15 "Hg3 mi
2:00 PM59 °FFog.14 mph88%30.15 "Hg1 mi
12:00 PM61 °FFog.12 mph88%30.15 "Hg1 mi
11:00 AM61 °FFog.7 mph88%30.18 "Hg1 mi
10:00 AM57 °FFog.5 mph94%30.18 "Hg1 mi
9:00 AM57 °FFog.5 mph94%30.18 "Hg1 mi
8:00 AM55 °FFog.2 mph100%30.15 "Hg1 mi
7:00 AM55 °FFog.2 mph94%30.18 "Hg1 mi
6:00 AM55 °FPartly sunny.5 mph94%30.18 "Hg4 mi
5:00 AM55 °FPassing clouds.2 mph100%30.18 "Hg4 mi
12:00 AM57 °FPassing clouds.5 mph94%30.21 "Hg4 mi
11:00 PM
Wed, Mar 4
57 °FPassing clouds.5 mph94%30.21 "Hg4 mi
Weather by CustomWeather, © 2015

See weather overviewHow to use our weather pages